ICE778 EKVG-BIKF

Flight info

Callsign ICE778
Flight time 1h 22m
Altitude 38000
Route MY DCT ING DCT NASBU NASBU4K
Aircraft B38M/M-SDE1FGHILORVWXY/HB1

Departure

Time 2026-04-27 21:33
Airport Vágar Airport (EKVG)

Arrival

Time 2026-04-27 22:56
Airport Keflavik International Airport (BIKF)
Time Latitude Longitude Altitude Speed Heading
2026-04-27 21:09 62.06689 -7.27946 293 ft 0 kts 28°
2026-04-27 21:25 62.06688 -7.27948 291 ft 2 kts 28°
2026-04-27 21:25 62.06666 -7.27962 297 ft 4 kts 350°
2026-04-27 21:26 62.06645 -7.27936 293 ft 4 kts 307°
2026-04-27 21:26 62.06631 -7.27887 294 ft 4 kts 296°
2026-04-27 21:26 62.06625 -7.27862 294 ft 0 kts 297°
2026-04-27 21:29 62.06631 -7.27887 293 ft 4 kts 297°
2026-04-27 21:29 62.06650 -7.27974 295 ft 9 kts 293°
2026-04-27 21:29 62.06632 -7.28087 292 ft 6 kts 198°
2026-04-27 21:30 62.06570 -7.28094 294 ft 13 kts 183°
2026-04-27 21:30 62.06483 -7.28180 292 ft 11 kts 231°
2026-04-27 21:30 62.06481 -7.28244 290 ft 5 kts 298°
2026-04-27 21:30 62.06514 -7.28372 286 ft 15 kts 298°
2026-04-27 21:31 62.06578 -7.28611 283 ft 22 kts 301°
2026-04-27 21:31 62.06658 -7.28927 282 ft 25 kts 298°
2026-04-27 21:31 62.06708 -7.29193 278 ft 12 kts 291°
2026-04-27 21:31 62.06731 -7.29213 279 ft 1 kts 43°
2026-04-27 21:32 62.06731 -7.29207 279 ft 1 kts 70°
2026-04-27 21:32 62.06721 -7.29165 283 ft 6 kts 119°
2026-04-27 21:32 62.06705 -7.29110 280 ft 4 kts 121°
2026-04-27 21:32 62.06699 -7.29089 280 ft 0 kts 118°
2026-04-27 21:33 62.06698 -7.29086 280 ft 7 kts 120°
2026-04-27 21:33 62.06529 -7.28409 285 ft 96 kts 118°
2026-04-27 21:33 62.06092 -7.26640 295 ft 170 kts 121°
2026-04-27 21:33 62.05515 -7.24220 950 ft 193 kts 120°
2026-04-27 21:34 62.04943 -7.21786 2390 ft 179 kts 120°
2026-04-27 21:34 62.04458 -7.19130 3022 ft 205 kts 109°
2026-04-27 21:34 62.04223 -7.15949 3579 ft 236 kts 96°
2026-04-27 21:34 62.04139 -7.12256 4209 ft 260 kts 94°
2026-04-27 21:35 62.03929 -7.08411 5242 ft 267 kts 103°
2026-04-27 21:35 62.03324 -7.04613 6017 ft 282 kts 119°
2026-04-27 21:35 62.02173 -7.01236 7079 ft 281 kts 137°
2026-04-27 21:35 62.00632 -6.98598 7997 ft 287 kts 152°
2026-04-27 21:36 61.98784 -6.97044 8965 ft 286 kts 175°
2026-04-27 21:36 61.96828 -6.97486 9912 ft 282 kts 205°
2026-04-27 21:36 61.95217 -6.99706 10736 ft 284 kts 229°
2026-04-27 21:36 61.94112 -7.03274 11230 ft 297 kts 253°
2026-04-27 21:37 61.93766 -7.07645 11790 ft 307 kts 273°
2026-04-27 21:37 61.94144 -7.12112 12435 ft 316 kts 291°
2026-04-27 21:37 61.95250 -7.16115 13367 ft 315 kts 308°
2026-04-27 21:37 61.96612 -7.19832 14193 ft 321 kts 308°
2026-04-27 21:38 61.97989 -7.23634 14965 ft 323 kts 307°
2026-04-27 21:38 61.99352 -7.27386 15734 ft 326 kts 308°
2026-04-27 21:38 62.00750 -7.31235 16492 ft 329 kts 308°
2026-04-27 21:38 62.02156 -7.35112 17230 ft 332 kts 308°
2026-04-27 21:39 62.03577 -7.39037 17979 ft 335 kts 307°
2026-04-27 21:39 62.05006 -7.42987 18697 ft 338 kts 307°
2026-04-27 21:39 62.06447 -7.46980 19296 ft 341 kts 307°
2026-04-27 21:39 62.07900 -7.51011 19905 ft 344 kts 307°
2026-04-27 21:40 62.09346 -7.55027 20482 ft 347 kts 307°
2026-04-27 21:40 62.10892 -7.59030 21038 ft 350 kts 313°
2026-04-27 21:40 62.12373 -7.63175 21636 ft 352 kts 297°
2026-04-27 21:40 62.13220 -7.68042 22230 ft 355 kts 291°
2026-04-27 21:41 62.14171 -7.72953 22737 ft 359 kts 295°
2026-04-27 21:41 62.15201 -7.77841 23317 ft 361 kts 296°
2026-04-27 21:41 62.16273 -7.82721 23866 ft 364 kts 296°
2026-04-27 21:41 62.17371 -7.87635 24322 ft 367 kts 296°
2026-04-27 21:42 62.18485 -7.92571 24763 ft 369 kts 296°
2026-04-27 21:42 62.19614 -7.97544 25201 ft 372 kts 296°
2026-04-27 21:42 62.20751 -8.02547 25615 ft 375 kts 296°
2026-04-27 21:42 62.21510 -8.05892 25913 ft 377 kts 296°
2026-04-27 21:43 62.23038 -8.12633 26469 ft 380 kts 296°
2026-04-27 21:43 62.23808 -8.16038 26740 ft 382 kts 296°
2026-04-27 21:43 62.24974 -8.21202 27150 ft 385 kts 296°
2026-04-27 21:43 62.26529 -8.28108 27683 ft 388 kts 296°
2026-04-27 21:44 62.27311 -8.31593 27951 ft 390 kts 296°
2026-04-27 21:44 62.28493 -8.36869 28357 ft 392 kts 295°
2026-04-27 21:44 62.29678 -8.42168 28774 ft 394 kts 295°
2026-04-27 21:44 62.30871 -8.47518 29126 ft 397 kts 295°
2026-04-27 21:45 62.32068 -8.52899 29494 ft 400 kts 295°
2026-04-27 21:45 62.33666 -8.60105 29967 ft 403 kts 295°
2026-04-27 21:45 62.34467 -8.63726 30205 ft 405 kts 295°
2026-04-27 21:45 62.35680 -8.69221 30535 ft 407 kts 295°
2026-04-27 21:46 62.36901 -8.74768 30835 ft 409 kts 295°
2026-04-27 21:46 62.38105 -8.80251 31141 ft 410 kts 295°
2026-04-27 21:46 62.39331 -8.85850 31436 ft 413 kts 295°
2026-04-27 21:46 62.40557 -8.91465 31733 ft 414 kts 295°
2026-04-27 21:47 62.41786 -8.97107 32049 ft 416 kts 294°
2026-04-27 21:47 62.43018 -9.02777 32342 ft 418 kts 294°
2026-04-27 21:47 62.44250 -9.08461 32651 ft 419 kts 294°
2026-04-27 21:47 62.45474 -9.14125 33036 ft 418 kts 294°
2026-04-27 21:48 62.46700 -9.19814 33455 ft 416 kts 294°
2026-04-27 21:48 62.47921 -9.25496 33872 ft 415 kts 294°
2026-04-27 21:48 62.49119 -9.31084 34279 ft 413 kts 294°
2026-04-27 21:48 62.50330 -9.36750 34631 ft 412 kts 294°
2026-04-27 21:49 62.51534 -9.42397 34976 ft 411 kts 294°
2026-04-27 21:49 62.52728 -9.48017 35338 ft 409 kts 294°
2026-04-27 21:49 62.53919 -9.53634 35658 ft 409 kts 294°
2026-04-27 21:49 62.55105 -9.59239 35943 ft 408 kts 294°
2026-04-27 21:50 62.56284 -9.64831 36226 ft 408 kts 293°
2026-04-27 21:50 62.57448 -9.70366 36534 ft 407 kts 293°
2026-04-27 21:50 62.58619 -9.75944 36800 ft 406 kts 293°
2026-04-27 21:50 62.59790 -9.81542 37059 ft 406 kts 293°
2026-04-27 21:51 62.60958 -9.87143 37310 ft 406 kts 293°
2026-04-27 21:51 62.62124 -9.92744 37562 ft 405 kts 293°
2026-04-27 21:51 62.63269 -9.98261 37793 ft 405 kts 292°
2026-04-27 21:51 62.64427 -10.03858 38035 ft 405 kts 292°
2026-04-27 21:52 62.65582 -10.09453 38234 ft 405 kts 292°
2026-04-27 21:52 62.66737 -10.15062 38304 ft 406 kts 292°
2026-04-27 21:52 62.69015 -10.26177 38295 ft 403 kts 292°
2026-04-27 21:53 62.71295 -10.37356 38277 ft 403 kts 292°
2026-04-27 21:53 62.73558 -10.48515 38265 ft 404 kts 292°
2026-04-27 21:54 62.75820 -10.59730 38260 ft 401 kts 291°
2026-04-27 21:54 62.78049 -10.70843 38271 ft 401 kts 291°
2026-04-27 21:55 62.80281 -10.82031 38258 ft 401 kts 291°
2026-04-27 21:55 62.82503 -10.93230 38263 ft 401 kts 291°
2026-04-27 21:56 62.85808 -11.10000 38251 ft 401 kts 291°
2026-04-27 21:57 62.88008 -11.21245 38248 ft 401 kts 291°
2026-04-27 21:57 62.90189 -11.32452 38242 ft 403 kts 290°
2026-04-27 21:58 62.92390 -11.43824 38238 ft 405 kts 290°
2026-04-27 21:58 62.94580 -11.55208 38245 ft 404 kts 290°
2026-04-27 21:59 62.96761 -11.66607 38258 ft 403 kts 289°
2026-04-27 21:59 62.98904 -11.77872 38234 ft 401 kts 289°
2026-04-27 22:00 63.01058 -11.89256 38227 ft 402 kts 289°
2026-04-27 22:00 63.03188 -12.00579 38229 ft 401 kts 289°
2026-04-27 22:01 63.05317 -12.11966 38213 ft 401 kts 289°
2026-04-27 22:01 63.07453 -12.23457 38224 ft 407 kts 289°
2026-04-27 22:02 63.09587 -12.34999 38216 ft 407 kts 288°
2026-04-27 22:02 63.11715 -12.46580 38209 ft 407 kts 288°
2026-04-27 22:03 63.13835 -12.58184 38205 ft 407 kts 288°
2026-04-27 22:03 63.15931 -12.69725 38206 ft 406 kts 288°
2026-04-27 22:04 63.18035 -12.81381 38207 ft 406 kts 288°
2026-04-27 22:04 63.20109 -12.92938 38190 ft 406 kts 287°
2026-04-27 22:05 63.22192 -13.04620 38184 ft 409 kts 287°
2026-04-27 22:05 63.24290 -13.16452 38182 ft 413 kts 287°
2026-04-27 22:06 63.26368 -13.28242 38177 ft 412 kts 287°
2026-04-27 22:06 63.28448 -13.40122 38179 ft 412 kts 287°
2026-04-27 22:07 63.30511 -13.51971 38176 ft 412 kts 287°
2026-04-27 22:07 63.32571 -13.63882 38175 ft 412 kts 286°
2026-04-27 22:08 63.34621 -13.75812 38163 ft 412 kts 286°
2026-04-27 22:08 63.36649 -13.87680 38170 ft 413 kts 285°
2026-04-27 22:09 63.38692 -13.99723 38166 ft 416 kts 285°
2026-04-27 22:09 63.40735 -14.11833 38160 ft 415 kts 285°
2026-04-27 22:10 63.42750 -14.23858 38140 ft 416 kts 285°
2026-04-27 22:10 63.44773 -14.36012 38140 ft 415 kts 284°
2026-04-27 22:11 63.46765 -14.48057 38140 ft 415 kts 284°
2026-04-27 22:11 63.48762 -14.60210 38135 ft 415 kts 284°
2026-04-27 22:12 63.50739 -14.72315 38161 ft 415 kts 284°
2026-04-27 22:12 63.52714 -14.84497 38129 ft 416 kts 283°
2026-04-27 22:13 63.54685 -14.96725 38122 ft 416 kts 283°
2026-04-27 22:13 63.56632 -15.08894 38129 ft 416 kts 283°
2026-04-27 22:14 63.58585 -15.21176 38129 ft 416 kts 283°
2026-04-27 22:14 63.60510 -15.33370 38109 ft 416 kts 283°
2026-04-27 22:15 63.62439 -15.45670 38110 ft 416 kts 283°
2026-04-27 22:15 63.64355 -15.57968 38103 ft 416 kts 283°
2026-04-27 22:16 63.66250 -15.70208 38114 ft 416 kts 282°
2026-04-27 22:16 63.68146 -15.82515 38101 ft 415 kts 282°
2026-04-27 22:17 63.70031 -15.94829 38096 ft 415 kts 281°
2026-04-27 22:17 63.71902 -16.07135 38095 ft 415 kts 281°
2026-04-27 22:18 63.73772 -16.19510 38093 ft 415 kts 281°
2026-04-27 22:18 63.75615 -16.31788 38093 ft 415 kts 281°
2026-04-27 22:19 63.77465 -16.44190 38089 ft 415 kts 281°
2026-04-27 22:19 63.79291 -16.56514 38089 ft 415 kts 281°
2026-04-27 22:20 63.80573 -16.69030 38112 ft 401 kts 269°
2026-04-27 22:20 63.81213 -16.81621 38081 ft 404 kts 270°
2026-04-27 22:21 63.81850 -16.94290 38088 ft 404 kts 270°
2026-04-27 22:21 63.82474 -17.06973 38083 ft 404 kts 270°
2026-04-27 22:22 63.83085 -17.19631 38083 ft 404 kts 270°
2026-04-27 22:22 63.83681 -17.32224 38083 ft 404 kts 269°
2026-04-27 22:23 63.84270 -17.44908 38093 ft 403 kts 269°
2026-04-27 22:23 63.84845 -17.57512 38076 ft 402 kts 269°
2026-04-27 22:23 63.85124 -17.63727 37508 ft 400 kts 269°
2026-04-27 22:24 63.85403 -17.69994 37005 ft 395 kts 268°
2026-04-27 22:24 63.85673 -17.76114 36797 ft 383 kts 268°
2026-04-27 22:24 63.85933 -17.82052 36572 ft 373 kts 268°
2026-04-27 22:24 63.86180 -17.87797 36184 ft 368 kts 268°
2026-04-27 22:25 63.86427 -17.93564 35692 ft 366 kts 268°
2026-04-27 22:25 63.86670 -17.99315 35175 ft 364 kts 267°
2026-04-27 22:25 63.86911 -18.05045 34671 ft 363 kts 267°
2026-04-27 22:25 63.87147 -18.10731 34210 ft 360 kts 267°
2026-04-27 22:26 63.87377 -18.16293 33712 ft 357 kts 267°
2026-04-27 22:26 63.87606 -18.21908 33223 ft 354 kts 267°
2026-04-27 22:26 63.87831 -18.27463 32798 ft 350 kts 266°
2026-04-27 22:26 63.88050 -18.32946 32342 ft 346 kts 266°
2026-04-27 22:27 63.88262 -18.38291 31933 ft 342 kts 266°
2026-04-27 22:27 63.88472 -18.43649 31522 ft 338 kts 266°
2026-04-27 22:27 63.88679 -18.48950 31113 ft 334 kts 266°
2026-04-27 22:27 63.88878 -18.54127 30729 ft 331 kts 266°
2026-04-27 22:28 63.89076 -18.59326 30334 ft 328 kts 266°
2026-04-27 22:28 63.89270 -18.64461 29933 ft 324 kts 266°
2026-04-27 22:28 63.89461 -18.69539 29525 ft 320 kts 266°
2026-04-27 22:28 63.89644 -18.74494 29126 ft 316 kts 266°
2026-04-27 22:29 63.89825 -18.79428 28769 ft 312 kts 265°
2026-04-27 22:29 63.90007 -18.84418 28420 ft 319 kts 266°
2026-04-27 22:29 63.90189 -18.89479 28053 ft 323 kts 266°
2026-04-27 22:29 63.90369 -18.94519 27716 ft 324 kts 266°
2026-04-27 22:30 63.90552 -18.99636 27351 ft 323 kts 266°
2026-04-27 22:30 63.90728 -19.04707 27007 ft 322 kts 266°
2026-04-27 22:30 63.90904 -19.09791 26681 ft 321 kts 265°
2026-04-27 22:30 63.91074 -19.14788 26319 ft 320 kts 265°
2026-04-27 22:31 63.91246 -19.19824 25968 ft 319 kts 265°
2026-04-27 22:31 63.91414 -19.24846 25612 ft 318 kts 265°
2026-04-27 22:31 63.91581 -19.29852 25278 ft 317 kts 265°
2026-04-27 22:31 63.91745 -19.34850 24931 ft 316 kts 265°
2026-04-27 22:32 63.91905 -19.39760 24630 ft 315 kts 265°
2026-04-27 22:32 63.92065 -19.44720 24280 ft 313 kts 265°
2026-04-27 22:32 63.92221 -19.49637 23944 ft 310 kts 265°
2026-04-27 22:32 63.92323 -19.52861 23717 ft 308 kts 265°
2026-04-27 22:33 63.92474 -19.57687 23385 ft 305 kts 265°
2026-04-27 22:33 63.92625 -19.62497 23033 ft 302 kts 264°
2026-04-27 22:33 63.92769 -19.67240 22705 ft 299 kts 264°
2026-04-27 22:33 63.92910 -19.71930 22388 ft 295 kts 264°
2026-04-27 22:34 63.93047 -19.76498 22084 ft 291 kts 264°
2026-04-27 22:34 63.93182 -19.81050 21788 ft 287 kts 264°
2026-04-27 22:34 63.93316 -19.85630 21495 ft 292 kts 264°
2026-04-27 22:34 63.93450 -19.90278 21222 ft 297 kts 264°
2026-04-27 22:35 63.93586 -19.94992 20930 ft 298 kts 263°
2026-04-27 22:35 63.93719 -19.99652 20605 ft 297 kts 263°
2026-04-27 22:35 63.93852 -20.04338 20291 ft 296 kts 263°
2026-04-27 22:35 63.93983 -20.09018 19986 ft 295 kts 263°
2026-04-27 22:36 63.94112 -20.13673 19678 ft 294 kts 263°
2026-04-27 22:36 63.94239 -20.18311 19380 ft 293 kts 263°
2026-04-27 22:36 63.94365 -20.22932 19082 ft 292 kts 263°
2026-04-27 22:36 63.94487 -20.27481 18779 ft 291 kts 263°
2026-04-27 22:37 63.94609 -20.32063 18488 ft 290 kts 263°
2026-04-27 22:37 63.94728 -20.36653 18126 ft 290 kts 263°
2026-04-27 22:37 63.94849 -20.41218 17794 ft 287 kts 263°
2026-04-27 22:37 63.94968 -20.45722 17483 ft 283 kts 263°
2026-04-27 22:38 63.95086 -20.50153 17197 ft 278 kts 263°
2026-04-27 22:38 63.95200 -20.54522 16911 ft 275 kts 262°
2026-04-27 22:38 63.95312 -20.58831 16636 ft 270 kts 262°
2026-04-27 22:38 63.95419 -20.63017 16367 ft 267 kts 262°
2026-04-27 22:39 63.95527 -20.67285 16086 ft 272 kts 262°
2026-04-27 22:39 63.95636 -20.71624 15961 ft 277 kts 262°
2026-04-27 22:39 63.95745 -20.76019 15856 ft 278 kts 262°
2026-04-27 22:39 63.95852 -20.80379 15643 ft 280 kts 262°
2026-04-27 22:40 63.95959 -20.84812 15347 ft 280 kts 262°
2026-04-27 22:40 63.96066 -20.89257 15032 ft 279 kts 262°
2026-04-27 22:40 63.96168 -20.93595 14723 ft 276 kts 262°
2026-04-27 22:40 63.96269 -20.97943 14410 ft 274 kts 262°
2026-04-27 22:41 63.96369 -21.02256 14123 ft 272 kts 262°
2026-04-27 22:41 63.96466 -21.06572 13822 ft 273 kts 262°
2026-04-27 22:41 63.96564 -21.10911 13410 ft 274 kts 262°
2026-04-27 22:41 63.96660 -21.15244 13023 ft 273 kts 262°
2026-04-27 22:42 63.96752 -21.19487 12700 ft 270 kts 262°
2026-04-27 22:42 63.96844 -21.23749 12404 ft 267 kts 262°
2026-04-27 22:42 63.96934 -21.27962 12125 ft 264 kts 262°
2026-04-27 22:42 63.97020 -21.32123 11808 ft 262 kts 262°
2026-04-27 22:43 63.97106 -21.36269 11510 ft 260 kts 262°
2026-04-27 22:43 63.97188 -21.40315 11219 ft 258 kts 262°
2026-04-27 22:43 63.97271 -21.44401 10946 ft 256 kts 262°
2026-04-27 22:43 63.97631 -21.48503 10640 ft 278 kts 281°
2026-04-27 22:44 63.98439 -21.52579 10330 ft 282 kts 283°
2026-04-27 22:44 63.99251 -21.56653 9990 ft 281 kts 283°
2026-04-27 22:44 64.00053 -21.60656 9671 ft 280 kts 283°
2026-04-27 22:44 64.00867 -21.64701 9370 ft 278 kts 282°
2026-04-27 22:45 64.01673 -21.68709 9094 ft 277 kts 282°
2026-04-27 22:45 64.02473 -21.72691 8751 ft 276 kts 283°
2026-04-27 22:45 64.03272 -21.76663 8424 ft 274 kts 283°
2026-04-27 22:45 64.04052 -21.80560 8132 ft 272 kts 283°
2026-04-27 22:46 64.04838 -21.84487 7833 ft 270 kts 283°
2026-04-27 22:46 64.05618 -21.88394 7545 ft 268 kts 283°
2026-04-27 22:46 64.06378 -21.92206 7259 ft 266 kts 283°
2026-04-27 22:46 64.07143 -21.96055 7106 ft 267 kts 283°
2026-04-27 22:47 64.07917 -21.99955 6911 ft 270 kts 283°
2026-04-27 22:47 64.08698 -22.03896 6555 ft 272 kts 284°
2026-04-27 22:47 64.09480 -22.07848 6217 ft 272 kts 284°
2026-04-27 22:47 64.10261 -22.11808 5876 ft 272 kts 284°
2026-04-27 22:48 64.11030 -22.15711 5538 ft 272 kts 284°
2026-04-27 22:48 64.11807 -22.19663 5215 ft 270 kts 284°
2026-04-27 22:48 64.12574 -22.23570 4956 ft 267 kts 284°
2026-04-27 22:48 64.13329 -22.27429 4660 ft 264 kts 283°
2026-04-27 22:49 64.14064 -22.31187 4414 ft 260 kts 283°
2026-04-27 22:49 64.14796 -22.34937 4170 ft 255 kts 283°
2026-04-27 22:49 64.15510 -22.38616 3927 ft 249 kts 281°
2026-04-27 22:49 64.15777 -22.42263 3655 ft 218 kts 248°
2026-04-27 22:50 64.15234 -22.45231 3502 ft 192 kts 228°
2026-04-27 22:50 64.14534 -22.47764 3384 ft 183 kts 227°
2026-04-27 22:50 64.13854 -22.50133 3206 ft 177 kts 226°
2026-04-27 22:50 64.13175 -22.52435 3019 ft 171 kts 225°
2026-04-27 22:51 64.12508 -22.54653 2834 ft 164 kts 224°
2026-04-27 22:51 64.11873 -22.56748 2644 ft 156 kts 223°
2026-04-27 22:51 64.11259 -22.58711 2472 ft 143 kts 217°
2026-04-27 22:51 64.10478 -22.59684 2336 ft 123 kts 191°
2026-04-27 22:52 64.09648 -22.60058 2205 ft 123 kts 187°
2026-04-27 22:52 64.08794 -22.60294 2078 ft 124 kts 187°
2026-04-27 22:52 64.07930 -22.60421 1933 ft 124 kts 185°
2026-04-27 22:52 64.07096 -22.60479 1797 ft 116 kts 184°
2026-04-27 22:53 64.06303 -22.60505 1641 ft 113 kts 182°
2026-04-27 22:53 64.05545 -22.60516 1515 ft 108 kts 182°
2026-04-27 22:53 64.04797 -22.60524 1346 ft 108 kts 182°
2026-04-27 22:53 64.04036 -22.60526 1200 ft 110 kts 182°
2026-04-27 22:54 64.03267 -22.60528 1023 ft 111 kts 183°
2026-04-27 22:54 64.02491 -22.60534 868 ft 114 kts 181°
2026-04-27 22:54 64.01695 -22.60533 701 ft 114 kts 180°
2026-04-27 22:54 64.00884 -22.60549 586 ft 119 kts 180°
2026-04-27 22:55 64.00046 -22.60540 429 ft 123 kts 177°
2026-04-27 22:55 63.99183 -22.60548 215 ft 124 kts 176°
2026-04-27 22:55 63.98450 -22.60533 178 ft 76 kts 180°
2026-04-27 22:55 63.98046 -22.60518 174 ft 52 kts 180°
2026-04-27 22:56 63.97694 -22.60538 175 ft 50 kts 179°
2026-04-27 22:56 63.97423 -22.60603 174 ft 16 kts 224°
2026-04-27 22:56 63.97415 -22.60762 170 ft 11 kts 304°
2026-04-27 22:56 63.97487 -22.60943 168 ft 21 kts 336°
2026-04-27 22:57 63.97660 -22.60939 171 ft 30 kts
2026-04-27 22:57 63.97879 -22.60933 172 ft 31 kts
2026-04-27 22:57 63.98094 -22.60937 170 ft 30 kts 359°
2026-04-27 22:57 63.98303 -22.60940 167 ft 29 kts
2026-04-27 22:58 63.98501 -22.60937 169 ft 27 kts
2026-04-27 22:58 63.98685 -22.60938 166 ft 27 kts 360°
2026-04-27 22:58 63.98848 -22.60973 167 ft 14 kts 313°
2026-04-27 22:58 63.98869 -22.61127 163 ft 8 kts 325°
2026-04-27 22:59 63.98909 -22.61135 162 ft 5 kts 12°
2026-04-27 22:59 63.98940 -22.61124 162 ft 4 kts
2026-04-27 22:59 63.98978 -22.61122 163 ft 7 kts
2026-04-27 22:59 63.99055 -22.61117 163 ft 17 kts
2026-04-27 23:00 63.99178 -22.61381 154 ft 8 kts 295°
2026-04-27 23:00 63.99228 -22.61433 151 ft 0 kts 358°
2026-04-27 23:00 63.99249 -22.61437 150 ft 6 kts 348°
2026-04-27 23:01 63.99262 -22.61458 149 ft 0 kts 308°
2026-04-27 23:01 63.99263 -22.61476 149 ft 4 kts 269°
2026-04-27 23:01 63.99257 -22.61553 147 ft 6 kts 273°
2026-04-27 23:01 63.99257 -22.61620 145 ft 0 kts 270°